Location: Borz?cin
(51.1714°N, 19.6030°E)
Time: 08:09:17
(UTC+00:00)

CZ-4B R/B - Pass Details

Date: 19 May 2025
Orbit: 807 x 881 km, 98.9° (Epoch: 16 June)

Event Time Altitude Azimuth Distance (km) Brightness Sun altitude
Rises 19:22:08 0° 185° (S) 3,423 6.0 -6.9°
Reaches altitude 10° 19:24:40 10° 193° (SSW) 2,480 5.3 -7.2°
Maximum altitude 19:29:49 40° 262° (W) 1,224 4.4 -7.8°
Drops below altitude 10° 19:34:55 10° 332° (NNW) 2,451 7.1 -8.3°
Sets 19:37:25 0° 340° (NNW) 3,378 7.8 -8.6°
